[[{"header":{"parameterUnit":"m.s-1","parameterCategory":1,"la1":30.2991,"la2":30.254,"lo1":-89.0895,"lo2":-89.0444,"dy":0.0017,"dx":0.0017,"nx":28,"ny":28,"refTime":"2024-11-29T09:00:00:Z","depth":0,"parameterNumber":2,"parameterNumberName":"U-component_of_WINDS"},"data":[0,0,0,0,0,0,0,0,0,0,0,0,0,0,0,0,0,0,0,0,0,0,0,0,0,0,0,0,0,0,0,0,0,0,0,0,0,0,0,0,0,0,0,0,0,0,0,0,0,0,0,0,0,0,0,0,0,0,-2.8308,-2.8309,0,-2.8356,-2.8356,-2.8357,-2.8253,-2.8249,-2.8246,-2.8243,-2.8293,-2.8297,-2.8302,0,0,0,0,0,0,0,0,0,0,0,0,0,-2.8127,-2.8131,-2.8308,-2.8309,-2.8309,-2.8356,-2.8356,-2.8357,-2.8253,-2.8249,-2.8245,-2.8241,-2.8291,-2.8297,-2.8302,0,0,0,0,0,0,0,0,0,0,0,0,0,-2.8193,-2.8132,-2.8308,-2.8263,-2.826,-2.8356,-2.8356,-2.8357,-2.8254,-2.8249,-2.8244,-2.8239,-2.829,-2.8296,-2.8303,-2.8445,0,0,-2.8323,-2.8326,0,0,0,0,0,0,0,0,-2.819,-2.82,-2.8269,-2.8266,-2.8263,-2.8293,-2.8311,-2.8387,-2.8256,-2.8256,-2.8243,-2.8237,-2.8297,-2.8303,-2.8323,-2.8447,-2.8449,-2.8324,-2.8328,-2.8331,-2.8333,0,0,0,0,0,0,0,-2.8185,-2.8197,-2.8327,-2.827,-2.8266,-2.824,-2.8244,-2.8325,-2.8304,-2.8256,-2.8248,-2.8255,-2.8294,-2.8317,-2.8323,-2.845,-2.8324,-2.833,-2.8334,-2.8336,-2.8692,-2.8698,0,0,0,0,0,0,-2.8186,-2.8194,-2.8325,-2.8328,-2.8213,-2.8248,-2.8252,-2.8288,-2.8303,-2.8301,-2.826,-2.825,-2.8308,-2.8316,-2.8325,-2.8492,-2.8331,-2.8337,-2.8341,-2.8687,-2.8694,-2.8699,0,0,0,0,0,0,-2.8183,-2.8199,-2.8323,-2.8259,-2.8273,-2.8256,-2.8298,-2.8292,-2.8314,-2.8306,-2.8302,-2.8286,-2.8304,-2.8315,-2.8416,-2.8492,-2.834,-2.8346,-2.8681,-2.8689,-2.8697,-2.8828,0,0,0,0,0,0,-2.8178,-2.8198,-2.8252,-2.8261,-2.8277,-2.8414,-2.8303,-2.8297,-2.8326,-2.8314,-2.833,-2.8328,-2.8301,-2.8406,-2.8422,-2.8499,-2.8351,-2.8674,-2.8684,-2.8694,-2.8817,-2.884,-2.886,0,0,0,0,0,-2.8172,-2.8288,-2.8256,-2.8272,-2.8344,-2.8419,-2.8428,-2.8394,-2.8333,-2.8387,-2.8381,-2.8327,-2.8481,-2.8417,-2.8435,-2.8514,-2.8669,-2.8681,-2.8693,-2.8808,-2.8836,-2.8859,0,0,0,0,0,0,-2.829,-2.8289,-2.8253,-2.8375,-2.8398,-2.8401,-2.8469,-2.8425,-2.8466,-2.8454,-2.841,-2.8415,-2.8523,-2.8528,-2.8458,-2.8652,-2.8564,-2.8581,-2.8645,-2.8672,-2.8693,-2.869,-2.8357,0,0,0,0,0,-2.833,-2.839,-2.8386,-2.8494,-2.8507,-2.8486,-2.8518,-2.849,-2.8511,-2.8521,-2.8522,-2.8546,-2.8599,-2.8635,-2.8684,-2.8816,-2.8818,-2.8879,-2.8901,-2.8918,-2.8934,-2.9004,-2.9031,-2.874,-2.874,-2.8739,0,0,-2.8414,-2.842,-2.8462,-2.8518,-2.8533,-2.8596,-2.8495,-2.8567,-2.8614,-2.8532,-2.8627,-2.8628,-2.8651,-2.8769,-2.882,-2.8776,-2.9014,-2.8934,-2.8948,-2.8954,-2.9019,-2.9047,-2.9071,-2.8748,-2.8746,-2.8745,0,0,-2.8599,-2.861,-2.8702,-2.8718,-2.874,-2.8725,-2.8747,-2.8757,-2.8755,-2.8849,-2.8788,-2.8843,-2.8935,-2.8954,-2.8976,-2.9167,-2.9119,-2.9183,-2.9295,-2.9364,-2.9387,-2.9407,-2.9476,-2.9501,-2.9198,-2.9198,-2.9199,0,-2.8701,-2.8795,-2.8755,-2.8831,-2.8857,-2.8784,-2.8877,-2.8894,-2.8931,-2.8952,-2.8901,-2.9015,-2.9026,-2.9146,-2.9192,-2.9212,-2.9236,-2.9183,-2.9387,-2.9407,-2.9425,-2.949,-2.9516,-2.9206,-2.9205,-2.9205,-2.9204,0,-2.8919,-2.8985,-2.9056,-2.9093,-2.9127,-2.9212,-2.9184,-2.9223,-2.9191,-2.9181,-2.9278,-2.9287,-2.9336,-2.9362,-2.9332,-2.9478,-2.945,-2.9394,-2.9305,-2.9461,-2.9522,-2.9546,-2.9217,-2.9215,-2.9212,-2.921,0,0,-2.9184,-2.9196,-2.9223,-2.9239,-2.9257,-2.9307,-2.9386,-2.9434,-2.9469,-2.9496,-2.9562,-2.9641,-2.9589,-2.9614,-2.9585,-2.9645,-2.9796,-2.9581,-2.9581,-2.9622,-2.9957,-3.0,-3.003,-2.9763,-2.9767,-2.9771,-2.9955,0,-2.9368,-2.9506,-2.9471,-2.9607,-2.9667,-2.9597,-2.9667,-2.9685,-2.9678,-2.9727,-2.9717,-2.9775,-2.9701,-2.9716,-2.9772,-2.9766,-2.9863,-2.9751,-2.9824,-2.9828,-2.9823,-3.0061,-3.0107,-3.0281,-2.9979,-2.9983,-2.9985,0,-2.9603,-2.9639,-2.9781,-2.9788,-2.9812,-2.9876,-2.9915,-2.9963,-2.9982,-2.9972,-2.9999,-2.9957,-3.0036,-2.9944,-3.0052,-2.9977,-3.0004,-3.0005,-3.0011,-3.0018,-2.9918,-3.0076,-3.0336,-3.0363,-3.0022,-3.0019,-3.0016,0,-2.9783,-2.9866,-2.9962,-2.9977,-2.9988,-3.0034,-3.0041,-3.0055,-3.0085,-3.0119,-3.0138,-3.0182,-3.0206,-3.024,-3.0211,-3.0147,-3.0323,-3.023,-3.0317,-3.0319,-3.036,-3.0358,-3.0629,-3.0375,-3.0374,-3.0374,-3.0373,0,-2.9994,-3.0084,-3.0043,-3.0103,-3.0201,-3.0159,-3.0258,-3.0256,-3.0269,-3.0326,-3.0268,-3.0323,-3.028,-3.0332,-3.0309,-3.0402,-3.0413,-3.0407,-3.04,-3.0413,-3.0414,-3.0432,-3.042,-3.0381,-3.0379,-3.0378,-3.0377,0,-3.0213,-3.0189,-3.0289,-3.029,-3.0292,-3.0365,-3.0365,-3.042,-3.0407,-3.048,-3.0495,-3.0474,-3.0532,-3.0505,-3.0565,-3.055,-3.0669,-3.0645,-3.0663,-3.0658,-3.0747,-3.074,-3.1041,-3.1079,-3.0799,-3.0802,-3.0804,0,-3.035,-3.0417,-3.0425,-3.0459,-3.047,-3.0526,-3.0556,-3.0516,-3.055,-3.0576,-3.0627,-3.0679,-3.0719,-3.0813,-3.0804,-3.0849,-3.0827,-3.0929,-3.0833,-3.0844,-3.083,-3.0827,-3.0833,-3.0949,-3.0952,-3.0955,-3.0957,0,-3.0596,-3.0581,-3.0626,-3.0668,-3.0705,-3.0736,-3.0762,-3.0793,-3.0754,-3.0795,-3.0852,-3.0883,-3.0943,-3.0996,-3.1035,-3.1041,-3.0994,-3.0987,-3.101,-3.1025,-3.1033,-3.1031,-3.0717,-3.0981,-3.0978,-3.0977,-3.0975,-3.0975,-3.0779,-3.0836,-3.085,-3.0903,-3.0917,-3.0942,-3.0994,-3.0986,-3.1033,-3.1079,-3.1052,-3.112,-3.1135,-3.1183,-3.1195,-3.1247,-3.1206,-3.124,-3.1248,-3.1257,-3.127,-3.1023,-3.1254,-3.1253,-3.1252,-3.1252,-3.1251,0,-3.1024,-3.1029,-3.1077,-3.1115,-3.1156,-3.1105,-3.1131,-3.1169,-3.1229,-3.1247,-3.1286,-3.1352,-3.1402,-3.1395,-3.144,-3.1483,-3.1462,-3.1497,-3.1494,-3.1496,-3.1303,-3.1279,-3.1513,-3.1513,-3.1513,-3.1512,-3.1512,-3.1512,-3.1156,-3.1249,-3.1235,-3.1334,-3.1338,-3.1404,-3.1422,-3.1445,-3.1459,-3.1535,-3.1576,-3.1571,-3.1579,-3.1624,-3.1667,-3.1664,-3.1684,-3.1727,-3.1716,-3.1536,-3.151,-3.1485,-3.1463,-3.1731,-3.1731,-3.1904,-3.1906,-3.1907]},{"header":{"parameterUnit":"m.s-1","parameterCategory":1,"la1":30.2991,"la2":30.254,"lo1":-89.0895,"lo2":-89.0444,"dy":0.0017,"dx":0.0017,"nx":28,"ny":28,"refTime":"2024-11-29T09:00:00:Z","depth":0,"parameterNumber":3,"parameterNumberName":"V-component_of_WINDS"},"data":[0,0,0,0,0,0,0,0,0,0,0,0,0,0,0,0,0,0,0,0,0,0,0,0,0,0,0,0,0,0,0,0,0,0,0,0,0,0,0,0,0,0,0,0,0,0,0,0,0,0,0,0,0,0,0,0,0,0,-7.6014,-7.6015,0,-7.6139,-7.6141,-7.6142,-7.6033,-7.6029,-7.6024,-7.602,-7.6143,-7.615,-7.6158,0,0,0,0,0,0,0,0,0,0,0,0,0,-7.5672,-7.5679,-7.6013,-7.6015,-7.6017,-7.6139,-7.6141,-7.6142,-7.6034,-7.6029,-7.6023,-7.6018,-7.6141,-7.615,-7.6158,0,0,0,0,0,0,0,0,0,0,0,0,0,-7.5812,-7.5681,-7.6013,-7.5977,-7.5976,-7.6139,-7.6141,-7.6143,-7.6035,-7.6028,-7.6022,-7.6015,-7.6138,-7.6149,-7.616,-7.6363,0,0,-7.6194,-7.6199,0,0,0,0,0,0,0,0,-7.5804,-7.5824,-7.5981,-7.598,-7.5978,-7.6064,-7.6065,-7.6217,-7.6037,-7.6012,-7.602,-7.6012,-7.6122,-7.6134,-7.6172,-7.6369,-7.6374,-7.6195,-7.6202,-7.6206,-7.621,0,0,0,0,0,0,0,-7.5794,-7.5818,-7.6063,-7.5984,-7.5982,-7.5953,-7.5965,-7.6094,-7.6103,-7.6014,-7.6006,-7.6023,-7.612,-7.6162,-7.6174,-7.6376,-7.6195,-7.6204,-7.6211,-7.6216,-7.6743,-7.675,0,0,0,0,0,0,-7.5789,-7.5811,-7.6059,-7.6067,-7.5873,-7.5964,-7.5978,-7.6043,-7.6101,-7.6104,-7.6029,-7.6018,-7.6146,-7.6161,-7.6178,-7.6418,-7.6206,-7.6217,-7.6223,-7.6735,-7.6744,-7.6752,0,0,0,0,0,0,-7.5782,-7.5812,-7.6054,-7.5937,-7.5965,-7.5977,-7.6051,-7.6049,-7.6091,-7.6113,-7.6113,-7.607,-7.6141,-7.6162,-7.6318,-7.6421,-7.6222,-7.6232,-7.6727,-7.6738,-7.6748,-7.6902,0,0,0,0,0,0,-7.5773,-7.5811,-7.589,-7.594,-7.5972,-7.6194,-7.6058,-7.6056,-7.6111,-7.6098,-7.6152,-7.6154,-7.6137,-7.6302,-7.6329,-7.6433,-7.6241,-7.6717,-7.6732,-7.6745,-7.6888,-7.6917,-7.6942,0,0,0,0,0,-7.5761,-7.5928,-7.5895,-7.5925,-7.6072,-7.6201,-7.6219,-7.6198,-7.612,-7.6198,-7.6212,-7.6152,-7.6406,-7.6318,-7.6348,-7.6457,-7.6711,-7.6728,-7.6744,-7.6876,-7.6911,-7.6941,0,0,0,0,0,0,-7.5888,-7.5933,-7.5897,-7.6085,-7.614,-7.6182,-7.628,-7.6237,-7.6313,-7.6297,-7.6266,-7.6279,-7.6443,-7.6465,-7.6367,-7.6655,-7.6545,-7.6568,-7.6635,-7.6669,-7.6696,-7.6687,-7.625,0,0,0,0,0,-7.5938,-7.6041,-7.6074,-7.6236,-7.6266,-7.6269,-7.6324,-7.6303,-7.6358,-7.638,-7.6405,-7.6459,-7.655,-7.6611,-7.6696,-7.689,-7.6899,-7.6979,-7.7006,-7.7029,-7.7049,-7.7151,-7.7186,-7.6806,-7.6806,-7.6806,0,0,-7.6043,-7.608,-7.6146,-7.6263,-7.6303,-7.6408,-7.6289,-7.6405,-7.6482,-7.6397,-7.6546,-7.6566,-7.6623,-7.6798,-7.6877,-7.6822,-7.7156,-7.7049,-7.7067,-7.7075,-7.7171,-7.7207,-7.7239,-7.6817,-7.6815,-7.6813,0,0,-7.6286,-7.6325,-7.6464,-7.6507,-7.6569,-7.657,-7.6603,-7.6652,-7.6662,-7.6811,-7.6749,-7.6838,-7.6997,-7.704,-7.7083,-7.734,-7.7287,-7.7369,-7.751,-7.7609,-7.7639,-7.7666,-7.7756,-7.7789,-7.7389,-7.7389,-7.7389,0,-7.6407,-7.6565,-7.654,-7.6662,-7.6713,-7.6643,-7.6781,-7.6823,-7.691,-7.6946,-7.6884,-7.708,-7.7114,-7.7297,-7.736,-7.7398,-7.7433,-7.7362,-7.7637,-7.7664,-7.7688,-7.7773,-7.7808,-7.7398,-7.7397,-7.7396,-7.7395,0,-7.6709,-7.6819,-7.6924,-7.7011,-7.7074,-7.7203,-7.7196,-7.7263,-7.7236,-7.7243,-7.7393,-7.7431,-7.7522,-7.7564,-7.7539,-7.7743,-7.7707,-7.7642,-7.753,-7.7734,-7.7814,-7.7847,-7.7412,-7.7408,-7.7406,-7.7403,0,0,-7.7037,-7.7109,-7.7147,-7.7185,-7.7248,-7.7331,-7.7456,-7.7546,-7.7603,-7.7664,-7.7767,-7.7902,-7.7841,-7.789,-7.7868,-7.7956,-7.8155,-7.7879,-7.788,-7.7928,-7.8381,-7.8429,-7.8468,-7.8121,-7.8127,-7.8132,-7.8376,0,-7.7282,-7.7501,-7.7482,-7.7689,-7.7789,-7.7722,-7.783,-7.7879,-7.7888,-7.7971,-7.7979,-7.8076,-7.7989,-7.8018,-7.8102,-7.8114,-7.8246,-7.8096,-7.8213,-7.8218,-7.8201,-7.851,-7.8562,-7.8791,-7.8407,-7.8412,-7.8416,0,-7.7598,-7.7671,-7.7889,-7.7935,-7.7976,-7.8074,-7.8154,-7.8236,-7.8289,-7.8288,-7.8343,-7.8305,-7.8428,-7.8314,-7.8481,-7.8379,-7.8426,-7.8438,-7.8447,-7.8456,-7.8329,-7.8527,-7.8863,-7.8897,-7.8465,-7.8461,-7.8458,0,-7.7813,-7.7967,-7.8116,-7.815,-7.8208,-7.8278,-7.8305,-7.8352,-7.8407,-7.8476,-7.8511,-7.8593,-7.8638,-7.8701,-7.8686,-7.8605,-7.8856,-7.8741,-7.8857,-7.8858,-7.8913,-7.891,-7.926,-7.8945,-7.8944,-7.8944,-7.8943,0,-7.8088,-7.8224,-7.8214,-7.8306,-7.8454,-7.8429,-7.8576,-7.8594,-7.8635,-7.8727,-7.8674,-7.8761,-7.8736,-7.8821,-7.881,-7.8948,-7.8969,-7.8971,-7.8966,-7.8976,-7.8975,-7.9005,-7.8989,-7.8953,-7.8951,-7.8949,-7.8947,0,-7.8355,-7.8354,-7.8512,-7.8554,-7.8567,-7.8675,-7.8709,-7.8794,-7.8798,-7.8915,-7.8941,-7.8946,-7.9043,-7.9035,-7.9144,-7.9136,-7.9307,-7.9284,-7.9291,-7.9285,-7.9401,-7.939,-7.9783,-7.9832,-7.9486,-7.9489,-7.9492,0,-7.853,-7.8633,-7.8686,-7.8744,-7.8777,-7.8872,-7.8928,-7.8906,-7.8966,-7.9033,-7.911,-7.9202,-7.9275,-7.9433,-7.9446,-7.9528,-7.9505,-7.9637,-7.9517,-7.9523,-7.9506,-7.95,-7.9509,-7.9661,-7.9665,-7.9668,-7.9671,0,-7.8842,-7.8836,-7.8919,-7.9003,-7.9072,-7.9136,-7.9194,-7.9245,-7.9229,-7.9298,-7.9398,-7.9455,-7.9566,-7.9658,-7.9736,-7.976,-7.9713,-7.9708,-7.9739,-7.975,-7.9749,-7.975,-7.9354,-7.9699,-7.9697,-7.9694,-7.9693,-7.9692,-7.9067,-7.9154,-7.9205,-7.9299,-7.9341,-7.9397,-7.9478,-7.9492,-7.9576,-7.9666,-7.9648,-7.9759,-7.9806,-7.9906,-7.9939,-8.0024,-7.9976,-8.0021,-8.0032,-8.0044,-8.0057,-7.9736,-8.0038,-8.0037,-8.0036,-8.0036,-8.0035,0,-7.9374,-7.9403,-7.9491,-7.9574,-7.9648,-7.9598,-7.9659,-7.9724,-7.9823,-7.9873,-7.9946,-8.0059,-8.0147,-8.0166,-8.025,-8.0314,-8.0294,-8.0337,-8.0332,-8.0338,-8.0096,-8.006,-8.0352,-8.0352,-8.0352,-8.0352,-8.0351,-8.0351,-7.9543,-7.9687,-7.9687,-7.9851,-7.9878,-7.9988,-8.0028,-8.0077,-8.0116,-8.0246,-8.032,-8.0332,-8.0368,-8.0454,-8.0532,-8.0535,-8.0567,-8.0619,-8.0613,-8.0387,-8.0355,-8.0325,-8.0291,-8.0626,-8.0627,-8.0848,-8.085,-8.0851]}]]